Location: Unspecified
(0.0000°N, 0.0000°E)
Time: 09:41:50
(UTC+00:00)

Vanguard 3 - Pass Details

Date: 11 October 2022
Orbit: 509 x 3255 km, 33.3° (Epoch: 29 November)

Event Time Altitude Azimuth Distance (km) Brightness Sun altitude
Rises 21:48:43 0° 223° (SW) 7,205 12.3 -59.7°
Reaches altitude 10° 21:55:42 10° 210° (SSW) 6,016 11.7 -61.4°
Enters shadow 22:04:38 21° 183° (S) 4,676 10.9 -63.5°
